| time (UTC) | temp C | wind direction | speed KPH | gust KPH | rain 1hr cm | rain 24hr cm | rain mn cm | humidity % | barometer mb |
| 20260831084954 | 23 | 189 | 4.8 | 8.0 | 0.00 | 0.00 | 0.00 | 65 | 1013.4 |
| 20260831084504 | 23 | 200 | 4.8 | 8.0 | 0.00 | 0.00 | 0.00 | 66 | 1011.9 |
| 20260831084454 | 23 | 192 | 4.8 | 8.0 | 0.00 | 0.00 | 0.00 | 64 | 1013.4 |
| 20260831084005 | 23 | 194 | 6.4 | 9.7 | 0.00 | 0.00 | 0.00 | 66 | 1011.9 |
| 20260831083504 | 23 | 201 | 4.8 | 9.7 | 0.00 | 0.00 | 0.00 | 66 | 1011.8 |
| 20260831083454 | 23 | 187 | 4.8 | 9.7 | 0.00 | 0.00 | 0.00 | 62 | 1013.3 |
| 20260831082954 | 23 | 175 | 4.8 | 8.0 | 0.00 | 0.00 | 0.00 | 62 | 1013.5 |
| 20260831082004 | 23 | 200 | 4.8 | 8.0 | 0.00 | 0.00 | 0.00 | 65 | 1011.9 |
| 20260831081954 | 23 | 220 | 6.4 | 8.0 | 0.00 | 0.00 | 0.00 | 61 | 1013.4 |
| 20260831081504 | 23 | 205 | 6.4 | 8.0 | 0.00 | 0.00 | 0.00 | 65 | 1011.7 |
| 20260831081454 | 23 | 206 | 6.4 | 9.7 | 0.00 | 0.00 | 0.00 | 61 | 1013.5 |
| 20260831081004 | 23 | 194 | 8.0 | 8.0 | 0.00 | 0.00 | 0.00 | 65 | 1011.8 |
| 20260831080954 | 23 | 201 | 6.4 | 9.7 | 0.00 | 0.00 | 0.00 | 61 | 1013.5 |
| 20260831080504 | 23 | 189 | 8.0 | 9.7 | 0.00 | 0.00 | 0.00 | 65 | 1011.8 |
| 20260831080454 | 23 | 216 | 8.0 | 11.3 | 0.00 | 0.00 | 0.00 | 62 | 1013.6 |
| 20260831080005 | 23 | 198 | 8.0 | 9.7 | 0.00 | 0.00 | 0.00 | 65 | 1011.6 |
| 20260831080000 | 23 | 206 | 8.0 | 11.3 | 0.00 | 0.00 | 0.00 | 61 | 1013.3 |
| 20260831075503 | 23 | 210 | 6.4 | 9.7 | 0.00 | 0.00 | 0.00 | 66 | 1012.0 |
| 20260831075454 | 23 | 216 | 6.4 | 11.3 | 0.00 | 0.00 | 0.00 | 62 | 1013.3 |
| 20260831074953 | 23 | 232 | 4.8 | 11.3 | 0.00 | 0.00 | 0.00 | 64 | 1013.2 |
| 20260831074504 | 22 | 185 | 4.8 | 8.0 | 0.00 | 0.00 | 0.00 | 67 | 1011.8 |
| 20260831074454 | 23 | 175 | 4.8 | 8.0 | 0.00 | 0.00 | 0.00 | 64 | 1013.5 |
| 20260831074004 | 22 | 182 | 4.8 | 8.0 | 0.00 | 0.00 | 0.00 | 67 | 1011.7 |
| 20260831073954 | 23 | 192 | 4.8 | 8.0 | 0.00 | 0.00 | 0.00 | 63 | 1013.3 |
| 20260831073504 | 22 | 204 | 4.8 | 6.4 | 0.00 | 0.00 | 0.00 | 67 | 1011.7 |
| 20260831073454 | 23 | 209 | 6.4 | 6.4 | 0.00 | 0.00 | 0.00 | 63 | 1013.6 |
| 20260831073004 | 22 | 222 | 4.8 | 6.4 | 0.00 | 0.00 | 0.00 | 69 | 1011.6 |
| 20260831072954 | 22 | 211 | 4.8 | 6.4 | 0.00 | 0.00 | 0.00 | 65 | 1013.4 |
| 20260831072504 | 22 | 190 | 4.8 | 4.8 | 0.00 | 0.00 | 0.00 | 72 | 1011.7 |
| 20260831072454 | 22 | 183 | 4.8 | 4.8 | 0.00 | 0.00 | 0.00 | 69 | 1013.4 |
| 20260831071954 | 22 | 165 | 4.8 | 4.8 | 0.00 | 0.00 | 0.00 | 71 | 1013.3 |
| 20260831071504 | 22 | 200 | 3.2 | 4.8 | 0.00 | 0.00 | 0.00 | 73 | 1011.9 |
| 20260831071454 | 22 | 147 | 3.2 | 4.8 | 0.00 | 0.00 | 0.00 | 71 | 1013.4 |
| 20260831071004 | 21 | 172 | 4.8 | 6.4 | 0.00 | 0.00 | 0.00 | 75 | 1011.7 |
| 20260831070954 | 21 | 154 | 4.8 | 8.0 | 0.00 | 0.00 | 0.00 | 74 | 1013.3 |
| 20260831070503 | 21 | 176 | 6.4 | 8.0 | 0.00 | 0.00 | 0.00 | 76 | 1011.7 |
| 20260831070454 | 21 | 165 | 6.4 | 11.3 | 0.00 | 0.00 | 0.00 | 73 | 1013.5 |
| 20260831070000 | 21 | 179 | 6.4 | 11.3 | 0.00 | 0.00 | 0.00 | 74 | 1013.5 |
| 20260831065504 | 20 | 183 | 6.4 | 9.7 | 0.00 | 0.00 | 0.00 | 81 | 1011.8 |
| 20260831065004 | 20 | 170 | 3.2 | 6.4 | 0.00 | 0.00 | 0.00 | 84 | 1011.7 |
| 20260831064954 | 20 | 162 | 3.2 | 6.4 | 0.00 | 0.00 | 0.00 | 85 | 1013.5 |
| 20260831064454 | 20 | 184 | 3.2 | 6.4 | 0.00 | 0.00 | 0.00 | 88 | 1013.6 |
| 20260831064004 | 20 | 149 | 3.2 | 4.8 | 0.00 | 0.00 | 0.00 | 87 | 1012.0 |
| 20260831063954 | 19 | 160 | 3.2 | 4.8 | 0.00 | 0.00 | 0.00 | 91 | 1013.7 |
| 20260831063503 | 19 | 130 | 3.2 | 4.8 | 0.00 | 0.00 | 0.00 | 88 | 1011.9 |
| 20260831063454 | 19 | 144 | 4.8 | 6.4 | 0.00 | 0.00 | 0.00 | 92 | 1013.7 |
| 20260831062504 | 18 | 158 | 3.2 | 6.4 | 0.00 | 0.00 | 0.00 | 90 | 1012.0 |
| 20260831062454 | 18 | 152 | 3.2 | 6.4 | 0.00 | 0.00 | 0.00 | 96 | 1013.7 |
| 20260831061954 | 18 | 162 | 3.2 | 4.8 | 0.00 | 0.00 | 0.00 | 97 | 1014.0 |
| 20260831061503 | 18 | 174 | 3.2 | 4.8 | 0.00 | 0.00 | 0.00 | 91 | 1012.1 |
| 20260831061454 | 17 | 168 | 4.8 | 6.4 | 0.00 | 0.00 | 0.00 | 97 | 1013.8 |
| 20260831061004 | 17 | 174 | 1.6 | 4.8 | 0.00 | 0.00 | 0.00 | 92 | 1012.1 |
| 20260831060955 | 17 | 175 | 3.2 | 6.4 | 0.00 | 0.00 | 0.00 | 97 | 1014.1 |
| 20260831060504 | 17 | 0 | 0.0 | 0.0 | 0.00 | 0.00 | 0.00 | 93 | 1012.1 |
| 20260831060454 | 17 | 173 | 1.6 | 3.2 | 0.00 | 0.00 | 0.00 | 97 | 1013.9 |
| 20260831060000 | 16 | 165 | 1.6 | 3.2 | 0.00 | 0.00 | 0.00 | 98 | 1013.9 |
| 20260831055504 | 17 | 175 | 1.6 | 4.8 | 0.00 | 0.00 | 0.00 | 93 | 1012.0 |
| 20260831055454 | 16 | 172 | 3.2 | 4.8 | 0.00 | 0.00 | 0.00 | 98 | 1014.1 |
| 20260831054504 | 17 | 181 | 0.0 | 4.8 | 0.00 | 0.00 | 0.00 | 95 | 1011.9 |
| 20260831054454 | 15 | 150 | 3.2 | 4.8 | 0.00 | 0.00 | 0.00 | 99 | 1013.9 |
| 20260831054004 | 16 | 0 | 0.0 | 0.0 | 0.00 | 0.00 | 0.00 | 96 | 1012.0 |
| 20260831053454 | 15 | 125 | 1.6 | 3.2 | 0.00 | 0.00 | 0.00 | 99 | 1013.9 |
| 20260831053004 | 15 | 0 | 0.0 | 0.0 | 0.00 | 0.00 | 0.00 | 96 | 1011.9 |
| 20260831052955 | 14 | 122 | 1.6 | 3.2 | 0.00 | 0.00 | 0.00 | 99 | 1014.0 |
| 20260831052503 | 14 | 0 | 0.0 | 0.0 | 0.00 | 0.00 | 0.00 | 97 | 1011.9 |
| 20260831052454 | 14 | 169 | 1.6 | 3.2 | 0.00 | 0.00 | 0.00 | 99 | 1013.9 |
| 20260831051955 | 14 | 177 | 1.6 | 3.2 | 0.00 | 0.00 | 0.00 | 99 | 1013.8 |
| 20260831051504 | 14 | 0 | 0.0 | 0.0 | 0.00 | 0.00 | 0.00 | 96 | 1011.9 |
| 20260831051454 | 14 | 135 | 0.0 | 3.2 | 0.00 | 0.00 | 0.00 | 99 | 1013.9 |
| 20260831050954 | 13 | 125 | 1.6 | 3.2 | 0.00 | 0.00 | 0.00 | 99 | 1013.9 |
| 20260831050504 | 14 | 0 | 0.0 | 0.0 | 0.00 | 0.00 | 0.00 | 96 | 1011.7 |
| 20260831050455 | 13 | 118 | 1.6 | 3.2 | 0.00 | 0.00 | 0.00 | 99 | 1013.9 |
| 20260831050000 | 13 | 135 | 0.0 | 1.6 | 0.00 | 0.00 | 0.00 | 99 | 1013.9 |
| 20260831045504 | 13 | 0 | 0.0 | 0.0 | 0.00 | 0.00 | 0.00 | 97 | 1011.9 |
| 20260831045455 | 13 | 98 | 0.0 | 3.2 | 0.00 | 0.00 | 0.00 | 99 | 1014.1 |
| 20260831045004 | 13 | 0 | 0.0 | 0.0 | 0.00 | 0.00 | 0.00 | 97 | 1011.9 |
| 20260831044954 | 13 | 98 | 0.0 | 3.2 | 0.00 | 0.00 | 0.00 | 99 | 1013.9 |
| 20260831044504 | 13 | 0 | 0.0 | 0.0 | 0.00 | 0.00 | 0.00 | 97 | 1011.9 |
| 20260831044004 | 13 | 0 | 0.0 | 0.0 | 0.00 | 0.00 | 0.00 | 97 | 1011.9 |
| 20260831043504 | 13 | 0 | 0.0 | 0.0 | 0.00 | 0.00 | 0.00 | 97 | 1012.0 |
| 20260831043004 | 13 | 0 | 0.0 | 0.0 | 0.00 | 0.00 | 0.00 | 97 | 1011.9 |
| 20260831042954 | 13 | 105 | 0.0 | 3.2 | 0.00 | 0.00 | 0.00 | 99 | 1014.1 |
| 20260831042503 | 13 | 0 | 0.0 | 0.0 | 0.00 | 0.00 | 0.00 | 97 | 1012.1 |
| 20260831042455 | 13 | 90 | 0.0 | 1.6 | 0.00 | 0.00 | 0.00 | 99 | 1014.0 |
| 20260831042004 | 13 | 0 | 0.0 | 0.0 | 0.00 | 0.00 | 0.00 | 96 | 1012.1 |
| 20260831041954 | 13 | 0 | 0.0 | 0.0 | 0.00 | 0.00 | 0.00 | 99 | 1014.0 |
| 20260831041504 | 13 | 0 | 0.0 | 0.0 | 0.00 | 0.00 | 0.00 | 96 | 1012.0 |
| 20260831041003 | 13 | 0 | 0.0 | 0.0 | 0.00 | 0.00 | 0.00 | 96 | 1012.0 |
| 20260831040954 | 13 | 0 | 0.0 | 0.0 | 0.00 | 0.00 | 0.00 | 99 | 1014.0 |
| 20260831040504 | 13 | 0 | 0.0 | 0.0 | 0.00 | 0.00 | 0.00 | 96 | 1011.9 |
| 20260831040454 | 13 | 90 | 0.0 | 1.6 | 0.00 | 0.00 | 0.00 | 99 | 1014.2 |
| 20260831040004 | 13 | 0 | 0.0 | 0.0 | 0.00 | 0.00 | 0.00 | 96 | 1012.1 |
| 20260831040001 | 13 | 90 | 0.0 | 3.2 | 0.00 | 0.00 | 0.00 | 99 | 1014.1 |
| 20260831035504 | 13 | 90 | 0.0 | 3.2 | 0.00 | 0.00 | 0.00 | 96 | 1012.0 |
| 20260831035454 | 13 | 85 | 1.6 | 3.2 | 0.00 | 0.00 | 0.00 | 99 | 1014.1 |
| 20260831035004 | 13 | 90 | 0.0 | 3.2 | 0.00 | 0.00 | 0.00 | 96 | 1012.2 |
| 20260831034955 | 13 | 86 | 1.6 | 3.2 | 0.00 | 0.00 | 0.00 | 99 | 1014.1 |
| 20260831034504 | 13 | 0 | 0.0 | 0.0 | 0.00 | 0.00 | 0.00 | 96 | 1012.1 |
| 20260831034455 | 13 | 94 | 0.0 | 3.2 | 0.00 | 0.00 | 0.00 | 98 | 1014.4 |
| 20260831034004 | 13 | 225 | 0.0 | 3.2 | 0.00 | 0.00 | 0.00 | 96 | 1012.0 |
| 20260831033955 | 13 | 171 | 0.0 | 3.2 | 0.00 | 0.00 | 0.00 | 98 | 1014.0 |
| 20260831033504 | 13 | 234 | 1.6 | 3.2 | 0.00 | 0.00 | 0.00 | 96 | 1012.2 |
| 20260831033455 | 12 | 214 | 1.6 | 3.2 | 0.00 | 0.00 | 0.00 | 98 | 1014.3 |
| 20260831033004 | 13 | 238 | 0.0 | 3.2 | 0.00 | 0.00 | 0.00 | 96 | 1012.0 |
| 20260831032954 | 13 | 220 | 1.6 | 3.2 | 0.00 | 0.00 | 0.00 | 98 | 1014.3 |
| 20260831032503 | 13 | 0 | 0.0 | 0.0 | 0.00 | 0.00 | 0.00 | 96 | 1012.1 |
| 20260831032003 | 13 | 0 | 0.0 | 0.0 | 0.00 | 0.00 | 0.00 | 96 | 1012.1 |
| 20260831031954 | 13 | 225 | 1.6 | 3.2 | 0.00 | 0.00 | 0.00 | 98 | 1013.9 |
| 20260831031455 | 13 | 0 | 0.0 | 0.0 | 0.00 | 0.00 | 0.00 | 98 | 1014.1 |
| 20260831031004 | 13 | 0 | 0.0 | 0.0 | 0.00 | 0.00 | 0.00 | 96 | 1012.0 |
| 20260831030503 | 13 | 0 | 0.0 | 0.0 | 0.00 | 0.00 | 0.00 | 96 | 1011.9 |
| 20260831030455 | 13 | 0 | 0.0 | 0.0 | 0.00 | 0.00 | 0.00 | 98 | 1014.0 |
| 20260831030004 | 13 | 0 | 0.0 | 0.0 | 0.00 | 0.00 | 0.00 | 95 | 1011.9 |
| 20260831030001 | 13 | 45 | 0.0 | 1.6 | 0.00 | 0.00 | 0.00 | 98 | 1013.9 |
| 20260831025504 | 13 | 0 | 0.0 | 0.0 | 0.00 | 0.00 | 0.00 | 95 | 1012.0 |
| 20260831025455 | 13 | 83 | 1.6 | 3.2 | 0.00 | 0.00 | 0.00 | 97 | 1013.9 |
| 20260831024503 | 13 | 135 | 0.0 | 3.2 | 0.00 | 0.00 | 0.00 | 95 | 1011.9 |
| 20260831024004 | 13 | 135 | 0.0 | 3.2 | 0.00 | 0.00 | 0.00 | 95 | 1011.9 |
| 20260831023504 | 13 | 0 | 0.0 | 0.0 | 0.00 | 0.00 | 0.00 | 95 | 1012.1 |
| 20260831023455 | 13 | 121 | 0.0 | 3.2 | 0.00 | 0.00 | 0.00 | 97 | 1013.9 |
| 20260831023003 | 13 | 0 | 0.0 | 0.0 | 0.00 | 0.00 | 0.00 | 95 | 1012.0 |
| 20260831022955 | 13 | 0 | 0.0 | 0.0 | 0.00 | 0.00 | 0.00 | 97 | 1014.0 |
| 20260831022455 | 13 | 0 | 0.0 | 0.0 | 0.00 | 0.00 | 0.00 | 96 | 1014.0 |
| 20260831022004 | 13 | 0 | 0.0 | 0.0 | 0.00 | 0.00 | 0.00 | 94 | 1012.2 |
| 20260831021955 | 13 | 0 | 0.0 | 0.0 | 0.00 | 0.00 | 0.00 | 96 | 1014.3 |
| 20260831021503 | 13 | 0 | 0.0 | 0.0 | 0.00 | 0.00 | 0.00 | 94 | 1012.1 |
| 20260831021455 | 13 | 90 | 0.0 | 1.6 | 0.00 | 0.00 | 0.00 | 96 | 1014.0 |
| 20260831021004 | 13 | 0 | 0.0 | 0.0 | 0.00 | 0.00 | 0.00 | 94 | 1012.1 |
| 20260831020954 | 13 | 90 | 0.0 | 3.2 | 0.00 | 0.00 | 0.00 | 96 | 1014.1 |
| 20260831020504 | 13 | 0 | 0.0 | 0.0 | 0.00 | 0.00 | 0.00 | 94 | 1012.2 |
| 20260831020455 | 13 | 90 | 0.0 | 3.2 | 0.00 | 0.00 | 0.00 | 96 | 1014.3 |
| 20260831020003 | 13 | 0 | 0.0 | 0.0 | 0.00 | 0.00 | 0.00 | 94 | 1012.1 |
| 20260831020001 | 13 | 90 | 0.0 | 3.2 | 0.00 | 0.00 | 0.00 | 96 | 1014.3 |
| 20260831015455 | 14 | 90 | 1.6 | 3.2 | 0.00 | 0.00 | 0.00 | 96 | 1014.3 |
| 20260831015004 | 14 | 0 | 0.0 | 0.0 | 0.00 | 0.00 | 0.00 | 94 | 1012.5 |
| 20260831014955 | 13 | 90 | 0.0 | 3.2 | 0.00 | 0.00 | 0.00 | 95 | 1014.4 |
| 20260831014504 | 13 | 0 | 0.0 | 0.0 | 0.00 | 0.00 | 0.00 | 94 | 1012.3 |
| 20260831014455 | 13 | 112 | 0.0 | 1.6 | 0.00 | 0.00 | 0.00 | 95 | 1014.2 |
| 20260831014004 | 13 | 0 | 0.0 | 0.0 | 0.00 | 0.00 | 0.00 | 94 | 1012.3 |
| 20260831013955 | 13 | 135 | 0.0 | 1.6 | 0.00 | 0.00 | 0.00 | 96 | 1014.5 |
| 20260831013504 | 13 | 0 | 0.0 | 0.0 | 0.00 | 0.00 | 0.00 | 93 | 1012.4 |
| 20260831013455 | 13 | 0 | 0.0 | 0.0 | 0.00 | 0.00 | 0.00 | 96 | 1014.3 |
| 20260831013003 | 13 | 0 | 0.0 | 0.0 | 0.00 | 0.00 | 0.00 | 93 | 1012.4 |
| 20260831012955 | 13 | 18 | 0.0 | 12.9 | 0.00 | 0.00 | 0.00 | 96 | 1014.3 |
| 20260831012503 | 13 | 0 | 0.0 | 0.0 | 0.00 | 0.00 | 0.00 | 93 | 1012.3 |
| 20260831012455 | 13 | 10 | 0.0 | 12.9 | 0.00 | 0.00 | 0.00 | 95 | 1014.2 |
| 20260831011955 | 13 | 135 | 0.0 | 1.6 | 0.00 | 0.00 | 0.00 | 95 | 1014.4 |
| 20260831011504 | 14 | 0 | 0.0 | 0.0 | 0.00 | 0.00 | 0.00 | 94 | 1012.4 |
| 20260831011004 | 14 | 0 | 0.0 | 0.0 | 0.00 | 0.00 | 0.00 | 93 | 1012.2 |
| 20260831010956 | 14 | 135 | 0.0 | 1.6 | 0.00 | 0.00 | 0.00 | 94 | 1014.3 |
| 20260831010504 | 14 | 0 | 0.0 | 0.0 | 0.00 | 0.00 | 0.00 | 93 | 1012.3 |
| 20260831010455 | 14 | 0 | 0.0 | 0.0 | 0.00 | 0.00 | 0.00 | 94 | 1014.1 |
| 20260831010004 | 14 | 0 | 0.0 | 0.0 | 0.00 | 0.00 | 0.00 | 93 | 1012.1 |
| 20260831010001 | 14 | 0 | 0.0 | 0.0 | 0.00 | 0.00 | 0.00 | 94 | 1014.0 |
| 20260831005504 | 14 | 0 | 0.0 | 0.0 | 0.00 | 0.00 | 0.00 | 93 | 1012.2 |
| 20260831005455 | 14 | 286 | 0.0 | 3.2 | 0.00 | 0.00 | 0.00 | 94 | 1014.4 |
| 20260831005003 | 14 | 0 | 0.0 | 0.0 | 0.00 | 0.00 | 0.00 | 93 | 1012.3 |
| 20260831004955 | 14 | 291 | 0.0 | 3.2 | 0.00 | 0.00 | 0.00 | 94 | 1014.2 |
| 20260831004504 | 15 | 0 | 0.0 | 0.0 | 0.00 | 0.00 | 0.00 | 93 | 1012.4 |
| 20260831004458 | 15 | 46 | 0.0 | 1.6 | 0.00 | 0.00 | 0.00 | 94 | 1014.5 |
| 20260831004004 | 15 | 0 | 0.0 | 0.0 | 0.00 | 0.00 | 0.00 | 93 | 1012.5 |
| 20260831003956 | 15 | 135 | 0.0 | 1.6 | 0.00 | 0.00 | 0.00 | 94 | 1014.3 |
| 20260831003503 | 15 | 0 | 0.0 | 0.0 | 0.00 | 0.00 | 0.00 | 93 | 1012.4 |
| 20260831003455 | 14 | 135 | 0.0 | 1.6 | 0.00 | 0.00 | 0.00 | 94 | 1014.5 |
| 20260831003004 | 14 | 0 | 0.0 | 0.0 | 0.00 | 0.00 | 0.00 | 93 | 1012.6 |
| 20260831002955 | 14 | 0 | 0.0 | 0.0 | 0.00 | 0.00 | 0.00 | 94 | 1014.5 |
| 20260831002504 | 14 | 0 | 0.0 | 0.0 | 0.00 | 0.00 | 0.00 | 92 | 1012.5 |
| 20260831002004 | 15 | 0 | 0.0 | 0.0 | 0.00 | 0.00 | 0.00 | 92 | 1012.6 |
| 20260831001955 | 14 | 0 | 0.0 | 0.0 | 0.00 | 0.00 | 0.00 | 94 | 1014.6 |
| 20260831001504 | 14 | 0 | 0.0 | 0.0 | 0.00 | 0.00 | 0.00 | 92 | 1012.6 |
| 20260831001455 | 15 | 0 | 0.0 | 0.0 | 0.00 | 0.00 | 0.00 | 93 | 1014.3 |
| 20260831001004 | 15 | 0 | 0.0 | 0.0 | 0.00 | 0.00 | 0.00 | 92 | 1012.6 |
| 20260831000455 | 15 | 0 | 0.0 | 0.0 | 0.00 | 0.00 | 0.00 | 93 | 1014.5 |
| 20260831000003 | 15 | 0 | 0.0 | 0.0 | 0.00 | 0.00 | 0.00 | 92 | 1012.5 |
| 20260831000001 | 15 | 0 | 0.0 | 0.0 | 0.00 | 0.00 | 0.00 | 92 | 1014.4 |
| 20260830235504 | 15 | 0 | 0.0 | 0.0 | 0.00 | 0.00 | 0.00 | 91 | 1012.6 |
| 20260830235456 | 15 | 0 | 0.0 | 0.0 | 0.00 | 0.00 | 0.00 | 92 | 1014.5 |
| 20260830235004 | 15 | 0 | 0.0 | 0.0 | 0.00 | 0.00 | 0.00 | 91 | 1012.6 |
| 20260830234955 | 15 | 0 | 0.0 | 0.0 | 0.00 | 0.00 | 0.00 | 92 | 1014.4 |
| 20260830234503 | 15 | 0 | 0.0 | 0.0 | 0.00 | 0.00 | 0.00 | 91 | 1012.4 |
| 20260830234455 | 15 | 0 | 0.0 | 0.0 | 0.00 | 0.00 | 0.00 | 92 | 1014.5 |
| 20260830234004 | 15 | 0 | 0.0 | 0.0 | 0.00 | 0.00 | 0.00 | 91 | 1012.5 |
| 20260830233955 | 15 | 0 | 0.0 | 0.0 | 0.00 | 0.00 | 0.00 | 92 | 1014.4 |
| 20260830233504 | 15 | 0 | 0.0 | 0.0 | 0.00 | 0.00 | 0.00 | 90 | 1012.6 |
| 20260830233455 | 15 | 0 | 0.0 | 0.0 | 0.00 | 0.00 | 0.00 | 92 | 1014.4 |
| 20260830232955 | 15 | 135 | 0.0 | 1.6 | 0.00 | 0.00 | 0.00 | 92 | 1014.5 |
| 20260830232503 | 15 | 0 | 0.0 | 0.0 | 0.00 | 0.00 | 0.00 | 90 | 1012.7 |
| 20260830232455 | 15 | 135 | 0.0 | 1.6 | 0.00 | 0.00 | 0.00 | 92 | 1014.4 |
| 20260830232004 | 15 | 0 | 0.0 | 0.0 | 0.00 | 0.00 | 0.00 | 90 | 1012.7 |
| 20260830231956 | 15 | 169 | 0.0 | 1.6 | 0.00 | 0.00 | 0.00 | 91 | 1014.5 |
| 20260830231504 | 15 | 0 | 0.0 | 0.0 | 0.00 | 0.00 | 0.00 | 89 | 1012.7 |
| 20260830231455 | 15 | 174 | 1.6 | 3.2 | 0.00 | 0.00 | 0.00 | 91 | 1014.7 |
| 20260830231003 | 15 | 0 | 0.0 | 0.0 | 0.00 | 0.00 | 0.00 | 89 | 1012.6 |
| 20260830230956 | 15 | 181 | 0.0 | 3.2 | 0.00 | 0.00 | 0.00 | 90 | 1014.5 |
| 20260830230504 | 15 | 0 | 0.0 | 0.0 | 0.00 | 0.00 | 0.00 | 89 | 1012.6 |
| 20260830230455 | 15 | 225 | 0.0 | 1.6 | 0.00 | 0.00 | 0.00 | 90 | 1014.5 |
| 20260830230002 | 15 | 225 | 0.0 | 1.6 | 0.00 | 0.00 | 0.00 | 90 | 1014.5 |
| 20260830225503 | 15 | 0 | 0.0 | 0.0 | 0.00 | 0.00 | 0.00 | 89 | 1012.8 |
| 20260830225456 | 15 | 0 | 0.0 | 0.0 | 0.00 | 0.00 | 0.00 | 89 | 1014.7 |
| 20260830225004 | 15 | 0 | 0.0 | 0.0 | 0.00 | 0.00 | 0.00 | 89 | 1012.6 |
| 20260830224955 | 15 | 0 | 0.0 | 0.0 | 0.00 | 0.00 | 0.00 | 89 | 1014.7 |
| 20260830224504 | 15 | 0 | 0.0 | 0.0 | 0.00 | 0.00 | 0.00 | 88 | 1012.7 |
| 20260830224456 | 15 | 165 | 0.0 | 1.6 | 0.00 | 0.00 | 0.00 | 89 | 1014.5 |
| 20260830224003 | 15 | 0 | 0.0 | 0.0 | 0.00 | 0.00 | 0.00 | 88 | 1012.7 |
| 20260830223955 | 15 | 169 | 1.6 | 3.2 | 0.00 | 0.00 | 0.00 | 89 | 1014.6 |
| 20260830223503 | 15 | 0 | 0.0 | 0.0 | 0.00 | 0.00 | 0.00 | 88 | 1012.8 |
| 20260830223455 | 15 | 166 | 1.6 | 3.2 | 0.00 | 0.00 | 0.00 | 89 | 1014.6 |
| 20260830223004 | 15 | 0 | 0.0 | 0.0 | 0.00 | 0.00 | 0.00 | 88 | 1012.8 |
| 20260830222956 | 15 | 141 | 0.0 | 3.2 | 0.00 | 0.00 | 0.00 | 88 | 1014.7 |
| 20260830222504 | 15 | 0 | 0.0 | 0.0 | 0.00 | 0.00 | 0.00 | 88 | 1012.6 |
| 20260830222455 | 15 | 163 | 1.6 | 3.2 | 0.00 | 0.00 | 0.00 | 88 | 1014.6 |
| 20260830222004 | 15 | 0 | 0.0 | 0.0 | 0.00 | 0.00 | 0.00 | 88 | 1012.7 |
| 20260830221503 | 15 | 0 | 0.0 | 0.0 | 0.00 | 0.00 | 0.00 | 87 | 1012.5 |
| 20260830221456 | 15 | 0 | 0.0 | 0.0 | 0.00 | 0.00 | 0.00 | 88 | 1014.7 |
| 20260830221003 | 16 | 0 | 0.0 | 0.0 | 0.00 | 0.00 | 0.00 | 87 | 1012.5 |
| 20260830220955 | 16 | 171 | 0.0 | 3.2 | 0.00 | 0.00 | 0.00 | 87 | 1014.3 |
| 20260830220504 | 16 | 0 | 0.0 | 0.0 | 0.00 | 0.00 | 0.00 | 86 | 1012.5 |
| 20260830220455 | 16 | 169 | 0.0 | 3.2 | 0.00 | 0.00 | 0.00 | 86 | 1014.5 |
| 20260830220005 | 16 | 0 | 0.0 | 0.0 | 0.00 | 0.00 | 0.00 | 86 | 1012.6 |
| 20260830215503 | 16 | 0 | 0.0 | 0.0 | 0.00 | 0.00 | 0.00 | 86 | 1012.6 |
| 20260830215455 | 16 | 135 | 0.0 | 1.6 | 0.00 | 0.00 | 0.00 | 86 | 1014.5 |
| 20260830214455 | 16 | 176 | 1.6 | 3.2 | 0.00 | 0.00 | 0.00 | 85 | 1014.4 |
| 20260830214003 | 16 | 1 | 0.0 | 3.2 | 0.00 | 0.00 | 0.00 | 85 | 1012.6 |
| 20260830213956 | 16 | 181 | 1.6 | 3.2 | 0.00 | 0.00 | 0.00 | 85 | 1014.4 |
| 20260830213504 | 16 | 1 | 0.0 | 3.2 | 0.00 | 0.00 | 0.00 | 84 | 1012.6 |
| 20260830213455 | 16 | 181 | 1.6 | 3.2 | 0.00 | 0.00 | 0.00 | 84 | 1014.4 |
| 20260830213004 | 16 | 0 | 0.0 | 0.0 | 0.00 | 0.00 | 0.00 | 84 | 1012.5 |
| 20260830212957 | 16 | 181 | 0.0 | 1.6 | 0.00 | 0.00 | 0.00 | 84 | 1014.5 |
| 20260830212503 | 16 | 0 | 0.0 | 0.0 | 0.00 | 0.00 | 0.00 | 84 | 1012.5 |
| 20260830212455 | 16 | 0 | 0.0 | 0.0 | 0.00 | 0.00 | 0.00 | 84 | 1014.5 |
| 20260830212003 | 16 | 0 | 0.0 | 0.0 | 0.00 | 0.00 | 0.00 | 84 | 1012.6 |
| 20260830211956 | 16 | 0 | 0.0 | 0.0 | 0.00 | 0.00 | 0.00 | 83 | 1014.3 |
| 20260830211504 | 16 | 0 | 0.0 | 0.0 | 0.00 | 0.00 | 0.00 | 84 | 1012.3 |
| 20260830211456 | 16 | 0 | 0.0 | 0.0 | 0.00 | 0.00 | 0.00 | 83 | 1014.2 |
| 20260830211003 | 16 | 0 | 0.0 | 0.0 | 0.00 | 0.00 | 0.00 | 84 | 1012.5 |
| 20260830210955 | 17 | 0 | 0.0 | 0.0 | 0.00 | 0.00 | 0.00 | 82 | 1014.2 |
| 20260830210503 | 17 | 0 | 0.0 | 0.0 | 0.00 | 0.00 | 0.00 | 83 | 1012.5 |
| 20260830210456 | 17 | 0 | 0.0 | 0.0 | 0.00 | 0.00 | 0.00 | 82 | 1014.4 |
| 20260830210001 | 17 | 0 | 0.0 | 0.0 | 0.00 | 0.00 | 0.00 | 82 | 1014.3 |
| 20260830205504 | 17 | 0 | 0.0 | 0.0 | 0.00 | 0.00 | 0.00 | 83 | 1012.3 |
| 20260830205003 | 17 | 1 | 0.0 | 1.6 | 0.00 | 0.00 | 0.00 | 82 | 1012.3 |
| 20260830204955 | 17 | 149 | 1.6 | 3.2 | 0.00 | 0.00 | 0.00 | 82 | 1014.2 |
| 20260830204456 | 17 | 116 | 1.6 | 3.2 | 0.00 | 0.00 | 0.00 | 82 | 1014.2 |
| 20260830204003 | 17 | 1 | 0.0 | 1.6 | 0.00 | 0.00 | 0.00 | 82 | 1012.3 |
| 20260830203503 | 17 | 1 | 0.0 | 1.6 | 0.00 | 0.00 | 0.00 | 82 | 1012.3 |
| 20260830202956 | 17 | 112 | 0.0 | 1.6 | 0.00 | 0.00 | 0.00 | 80 | 1014.3 |
| 20260830202503 | 17 | 0 | 0.0 | 0.0 | 0.00 | 0.00 | 0.00 | 81 | 1012.4 |
| 20260830202003 | 17 | 0 | 0.0 | 0.0 | 0.00 | 0.00 | 0.00 | 81 | 1012.3 |
| 20260830201957 | 17 | 1 | 0.0 | 1.6 | 0.00 | 0.00 | 0.00 | 78 | 1014.2 |
| 20260830201456 | 18 | 140 | 0.0 | 3.2 | 0.00 | 0.00 | 0.00 | 77 | 1014.2 |
| 20260830200956 | 18 | 137 | 1.6 | 3.2 | 0.00 | 0.00 | 0.00 | 77 | 1014.2 |
| 20260830200503 | 18 | 0 | 0.0 | 0.0 | 0.00 | 0.00 | 0.00 | 79 | 1012.3 |
| 20260830200003 | 18 | 0 | 0.0 | 0.0 | 0.00 | 0.00 | 0.00 | 79 | 1012.3 |
| 20260830195503 | 18 | 181 | 0.0 | 1.6 | 0.00 | 0.00 | 0.00 | 78 | 1012.3 |
| 20260830195004 | 18 | 181 | 0.0 | 1.6 | 0.00 | 0.00 | 0.00 | 77 | 1012.4 |
| 20260830194956 | 18 | 159 | 1.6 | 3.2 | 0.00 | 0.00 | 0.00 | 75 | 1014.2 |
| 20260830194503 | 18 | 0 | 0.0 | 0.0 | 0.00 | 0.00 | 0.00 | 77 | 1012.2 |
| 20260830194455 | 18 | 0 | 0.0 | 0.0 | 0.00 | 0.00 | 0.00 | 75 | 1014.1 |
| 20260830194003 | 18 | 0 | 0.0 | 0.0 | 0.00 | 0.00 | 0.00 | 76 | 1012.2 |
| 20260830193503 | 18 | 0 | 0.0 | 0.0 | 0.00 | 0.00 | 0.00 | 76 | 1012.3 |
| 20260830193456 | 19 | 0 | 0.0 | 0.0 | 0.00 | 0.00 | 0.00 | 72 | 1014.3 |
| 20260830193003 | 18 | 0 | 0.0 | 0.0 | 0.00 | 0.00 | 0.00 | 74 | 1012.4 |
| 20260830192956 | 19 | 0 | 0.0 | 0.0 | 0.00 | 0.00 | 0.00 | 71 | 1014.2 |
| 20260830192002 | 19 | 0 | 0.0 | 0.0 | 0.00 | 0.00 | 0.00 | 73 | 1012.2 |
| 20260830191503 | 19 | 0 | 0.0 | 0.0 | 0.00 | 0.00 | 0.00 | 72 | 1012.3 |
| 20260830191456 | 20 | 0 | 0.0 | 0.0 | 0.00 | 0.00 | 0.00 | 68 | 1014.1 |
| 20260830191003 | 20 | 0 | 0.0 | 0.0 | 0.00 | 0.00 | 0.00 | 70 | 1012.3 |
| 20260830190956 | 20 | 0 | 0.0 | 0.0 | 0.00 | 0.00 | 0.00 | 67 | 1014.0 |
| 20260830190003 | 20 | 258 | 0.0 | 1.6 | 0.00 | 0.00 | 0.00 | 68 | 1012.1 |
| 20260830185503 | 21 | 197 | 1.6 | 3.2 | 0.00 | 0.00 | 0.00 | 68 | 1012.3 |
| 20260830185002 | 21 | 181 | 3.2 | 3.2 | 0.00 | 0.00 | 0.00 | 66 | 1012.1 |
| 20260830184956 | 21 | 178 | 3.2 | 4.8 | 0.00 | 0.00 | 0.00 | 64 | 1014.1 |
| 20260830184503 | 21 | 177 | 3.2 | 6.4 | 0.00 | 0.00 | 0.00 | 66 | 1012.2 |
| 20260830184456 | 21 | 184 | 4.8 | 6.4 | 0.00 | 0.00 | 0.00 | 64 | 1013.9 |
| 20260830184003 | 21 | 175 | 4.8 | 6.4 | 0.00 | 0.00 | 0.00 | 66 | 1012.1 |
| 20260830183956 | 21 | 175 | 4.8 | 6.4 | 0.00 | 0.00 | 0.00 | 63 | 1014.0 |
| 20260830183502 | 21 | 177 | 4.8 | 6.4 | 0.00 | 0.00 | 0.00 | 65 | 1012.1 |
| 20260830183456 | 22 | 174 | 4.8 | 6.4 | 0.00 | 0.00 | 0.00 | 62 | 1014.1 |
| 20260830183003 | 21 | 181 | 4.8 | 6.4 | 0.00 | 0.00 | 0.00 | 65 | 1012.0 |
| 20260830182956 | 22 | 181 | 4.8 | 6.4 | 0.00 | 0.00 | 0.00 | 62 | 1014.1 |
| 20260830182503 | 21 | 181 | 4.8 | 6.4 | 0.00 | 0.00 | 0.00 | 65 | 1012.1 |
| 20260830182456 | 22 | 177 | 4.8 | 6.4 | 0.00 | 0.00 | 0.00 | 62 | 1014.0 |
| 20260830182002 | 21 | 181 | 3.2 | 6.4 | 0.00 | 0.00 | 0.00 | 64 | 1012.1 |
| 20260830181956 | 22 | 174 | 3.2 | 6.4 | 0.00 | 0.00 | 0.00 | 62 | 1013.7 |
| 20260830181502 | 22 | 181 | 0.0 | 3.2 | 0.00 | 0.00 | 0.00 | 63 | 1011.9 |
| 20260830181457 | 22 | 181 | 0.0 | 3.2 | 0.00 | 0.00 | 0.00 | 62 | 1013.8 |
| 20260830180502 | 22 | 270 | 0.0 | 1.6 | 0.00 | 0.00 | 0.00 | 61 | 1011.8 |
| 20260830180456 | 23 | 181 | 0.0 | 1.6 | 0.00 | 0.00 | 0.00 | 59 | 1013.5 |
| 20260830180002 | 23 | 181 | 1.6 | 3.2 | 0.00 | 0.00 | 0.00 | 59 | 1013.5 |
| 20260830175502 | 23 | 193 | 1.6 | 4.8 | 0.00 | 0.00 | 0.00 | 59 | 1011.7 |
| 20260830175456 | 23 | 181 | 3.2 | 4.8 | 0.00 | 0.00 | 0.00 | 57 | 1013.5 |
| 20260830175002 | 23 | 181 | 3.2 | 4.8 | 0.00 | 0.00 | 0.00 | 58 | 1011.6 |
| 20260830174502 | 23 | 183 | 1.6 | 3.2 | 0.00 | 0.00 | 0.00 | 57 | 1011.5 |
| 20260830174002 | 23 | 220 | 3.2 | 4.8 | 0.00 | 0.00 | 0.00 | 57 | 1011.5 |
| 20260830173956 | 23 | 171 | 1.6 | 6.4 | 0.00 | 0.00 | 0.00 | 55 | 1013.4 |
| 20260830173502 | 23 | 255 | 1.6 | 4.8 | 0.00 | 0.00 | 0.00 | 57 | 1011.5 |
| 20260830173456 | 23 | 189 | 3.2 | 6.4 | 0.00 | 0.00 | 0.00 | 54 | 1013.2 |
| 20260830172502 | 23 | 194 | 3.2 | 6.4 | 0.00 | 0.00 | 0.00 | 58 | 1011.4 |
| 20260830172456 | 23 | 191 | 4.8 | 8.0 | 0.00 | 0.00 | 0.00 | 54 | 1013.3 |
| 20260830172001 | 23 | 186 | 3.2 | 4.8 | 0.00 | 0.00 | 0.00 | 57 | 1011.3 |
| 20260830171957 | 23 | 191 | 3.2 | 4.8 | 0.00 | 0.00 | 0.00 | 54 | 1013.3 |
| 20260830171456 | 23 | 188 | 3.2 | 4.8 | 0.00 | 0.00 | 0.00 | 54 | 1013.1 |
| 20260830171002 | 23 | 209 | 1.6 | 4.8 | 0.00 | 0.00 | 0.00 | 58 | 1011.4 |
| 20260830170956 | 24 | 195 | 1.6 | 4.8 | 0.00 | 0.00 | 0.00 | 55 | 1013.2 |
| 20260830170502 | 24 | 185 | 3.2 | 4.8 | 0.00 | 0.00 | 0.00 | 55 | 1011.5 |
| 20260830170456 | 24 | 182 | 3.2 | 4.8 | 0.00 | 0.00 | 0.00 | 52 | 1013.2 |
| 20260830170002 | 24 | 181 | 3.2 | 4.8 | 0.00 | 0.00 | 0.00 | 54 | 1011.3 |
| 20260830165502 | 24 | 181 | 1.6 | 4.8 | 0.00 | 0.00 | 0.00 | 54 | 1011.2 |
| 20260830165002 | 24 | 181 | 3.2 | 4.8 | 0.00 | 0.00 | 0.00 | 54 | 1011.3 |
| 20260830164957 | 24 | 181 | 3.2 | 4.8 | 0.00 | 0.00 | 0.00 | 51 | 1013.3 |
| 20260830164502 | 24 | 181 | 3.2 | 4.8 | 0.00 | 0.00 | 0.00 | 54 | 1011.4 |
| 20260830164002 | 24 | 188 | 1.6 | 3.2 | 0.00 | 0.00 | 0.00 | 54 | 1011.4 |
| 20260830163957 | 25 | 177 | 1.6 | 3.2 | 0.00 | 0.00 | 0.00 | 51 | 1013.0 |
| 20260830163502 | 24 | 200 | 0.0 | 1.6 | 0.00 | 0.00 | 0.00 | 54 | 1011.3 |
| 20260830163456 | 25 | 167 | 1.6 | 3.2 | 0.00 | 0.00 | 0.00 | 51 | 1013.2 |
| 20260830163002 | 25 | 183 | 1.6 | 4.8 | 0.00 | 0.00 | 0.00 | 53 | 1011.3 |
| 20260830162956 | 25 | 176 | 1.6 | 4.8 | 0.00 | 0.00 | 0.00 | 50 | 1013.1 |
| 20260830162501 | 25 | 193 | 3.2 | 6.4 | 0.00 | 0.00 | 0.00 | 51 | 1011.3 |
| 20260830162457 | 25 | 177 | 3.2 | 6.4 | 0.00 | 0.00 | 0.00 | 49 | 1013.3 |
| 20260830162002 | 25 | 189 | 4.8 | 6.4 | 0.00 | 0.00 | 0.00 | 51 | 1011.3 |
| 20260830161956 | 25 | 178 | 4.8 | 6.4 | 0.00 | 0.00 | 0.00 | 49 | 1013.4 |
| 20260830161002 | 25 | 194 | 1.6 | 3.2 | 0.00 | 0.00 | 0.00 | 50 | 1011.2 |
| 20260830160502 | 25 | 215 | 3.2 | 6.4 | 0.00 | 0.00 | 0.00 | 49 | 1011.5 |
| 20260830160457 | 25 | 188 | 3.2 | 8.0 | 0.00 | 0.00 | 0.00 | 47 | 1013.1 |
| 20260830160002 | 25 | 201 | 3.2 | 8.0 | 0.00 | 0.00 | 0.00 | 47 | 1013.3 |
| 20260830155502 | 25 | 215 | 3.2 | 6.4 | 0.00 | 0.00 | 0.00 | 48 | 1011.4 |
| 20260830155457 | 26 | 205 | 4.8 | 8.0 | 0.00 | 0.00 | 0.00 | 46 | 1013.4 |
| 20260830155002 | 25 | 222 | 4.8 | 6.4 | 0.00 | 0.00 | 0.00 | 48 | 1011.3 |
| 20260830154956 | 26 | 194 | 4.8 | 8.0 | 0.00 | 0.00 | 0.00 | 45 | 1013.2 |
| 20260830154501 | 26 | 200 | 4.8 | 9.7 | 0.00 | 0.00 | 0.00 | 47 | 1011.2 |
| 20260830154457 | 26 | 195 | 4.8 | 11.3 | 0.00 | 0.00 | 0.00 | 45 | 1013.2 |
| 20260830153956 | 26 | 206 | 6.4 | 12.9 | 0.00 | 0.00 | 0.00 | 45 | 1013.3 |
| 20260830153502 | 26 | 229 | 6.4 | 12.9 | 0.00 | 0.00 | 0.00 | 47 | 1011.4 |
| 20260830153456 | 26 | 203 | 6.4 | 12.9 | 0.00 | 0.00 | 0.00 | 45 | 1013.3 |
| 20260830152456 | 26 | 223 | 6.4 | 11.3 | 0.00 | 0.00 | 0.00 | 45 | 1013.6 |
| 20260830151957 | 26 | 219 | 4.8 | 11.3 | 0.00 | 0.00 | 0.00 | 45 | 1013.5 |
| 20260830151501 | 26 | 219 | 6.4 | 9.7 | 0.00 | 0.00 | 0.00 | 46 | 1011.6 |
| 20260830151457 | 26 | 224 | 4.8 | 11.3 | 0.00 | 0.00 | 0.00 | 44 | 1013.6 |
| 20260830150502 | 26 | 219 | 9.7 | 12.9 | 0.00 | 0.00 | 0.00 | 44 | 1011.5 |
| 20260830150456 | 26 | 208 | 9.7 | 16.1 | 0.00 | 0.00 | 0.00 | 43 | 1013.4 |
| 20260830145501 | 26 | 231 | 9.7 | 16.1 | 0.00 | 0.00 | 0.00 | 45 | 1011.6 |
| 20260830145456 | 27 | 234 | 9.7 | 14.5 | 0.00 | 0.00 | 0.00 | 42 | 1013.5 |
| 20260830145002 | 26 | 214 | 9.7 | 14.5 | 0.00 | 0.00 | 0.00 | 45 | 1011.6 |
| 20260830144957 | 26 | 215 | 9.7 | 14.5 | 0.00 | 0.00 | 0.00 | 43 | 1013.4 |
| 20260830144502 | 26 | 201 | 8.0 | 14.5 | 0.00 | 0.00 | 0.00 | 45 | 1011.6 |
| 20260830144456 | 26 | 226 | 9.7 | 16.1 | 0.00 | 0.00 | 0.00 | 43 | 1013.5 |
| 20260830144002 | 26 | 214 | 9.7 | 14.5 | 0.00 | 0.00 | 0.00 | 45 | 1011.7 |
| 20260830143457 | 26 | 210 | 14.5 | 20.9 | 0.00 | 0.00 | 0.00 | 43 | 1013.5 |
| 20260830143001 | 26 | 162 | 16.1 | 22.5 | 0.00 | 0.00 | 0.00 | 44 | 1011.5 |
| 20260830142956 | 26 | 193 | 17.7 | 24.1 | 0.00 | 0.00 | 0.00 | 43 | 1013.7 |
| 20260830142502 | 26 | 174 | 12.9 | 22.5 | 0.00 | 0.00 | 0.00 | 44 | 1011.6 |
| 20260830142457 | 26 | 179 | 14.5 | 24.1 | 0.00 | 0.00 | 0.00 | 43 | 1013.7 |
| 20260830142002 | 26 | 192 | 12.9 | 22.5 | 0.00 | 0.00 | 0.00 | 44 | 1011.8 |
| 20260830141957 | 26 | 182 | 14.5 | 24.1 | 0.00 | 0.00 | 0.00 | 43 | 1013.5 |
| 20260830141501 | 26 | 186 | 11.3 | 22.5 | 0.00 | 0.00 | 0.00 | 44 | 1011.7 |
| 20260830141458 | 26 | 188 | 12.9 | 24.1 | 0.00 | 0.00 | 0.00 | 42 | 1013.5 |
| 20260830141002 | 26 | 183 | 9.7 | 12.9 | 0.00 | 0.00 | 0.00 | 45 | 1011.8 |
| 20260830140957 | 26 | 183 | 9.7 | 12.9 | 0.00 | 0.00 | 0.00 | 43 | 1013.6 |
| 20260830140502 | 26 | 177 | 9.7 | 14.5 | 0.00 | 0.00 | 0.00 | 45 | 1011.8 |
| 20260830140457 | 26 | 185 | 9.7 | 16.1 | 0.00 | 0.00 | 0.00 | 43 | 1013.7 |
| 20260830140004 | 26 | 184 | 11.3 | 19.3 | 0.00 | 0.00 | 0.00 | 43 | 1013.8 |
| 20260830140001 | 26 | 176 | 11.3 | 17.7 | 0.00 | 0.00 | 0.00 | 45 | 1011.8 |
| 20260830135502 | 26 | 188 | 14.5 | 25.7 | 0.00 | 0.00 | 0.00 | 44 | 1011.8 |
| 20260830135456 | 26 | 182 | 14.5 | 25.7 | 0.00 | 0.00 | 0.00 | 42 | 1013.9 |
| 20260830135002 | 26 | 220 | 12.9 | 25.7 | 0.00 | 0.00 | 0.00 | 43 | 1011.7 |
| 20260830134957 | 27 | 204 | 14.5 | 25.7 | 0.00 | 0.00 | 0.00 | 41 | 1013.8 |
| 20260830134502 | 26 | 270 | 11.3 | 16.1 | 0.00 | 0.00 | 0.00 | 44 | 1011.9 |
| 20260830133957 | 27 | 252 | 11.3 | 16.1 | 0.00 | 0.00 | 0.00 | 41 | 1013.8 |
| 20260830133502 | 26 | 207 | 12.9 | 17.7 | 0.00 | 0.00 | 0.00 | 44 | 1011.7 |
| 20260830133457 | 27 | 188 | 12.9 | 20.9 | 0.00 | 0.00 | 0.00 | 42 | 1013.7 |
| 20260830132957 | 26 | 173 | 16.1 | 24.1 | 0.00 | 0.00 | 0.00 | 42 | 1013.7 |
| 20260830132501 | 26 | 177 | 14.5 | 20.9 | 0.00 | 0.00 | 0.00 | 43 | 1011.7 |
| 20260830132457 | 26 | 181 | 16.1 | 24.1 | 0.00 | 0.00 | 0.00 | 42 | 1013.8 |
| 20260830132002 | 26 | 183 | 14.5 | 17.7 | 0.00 | 0.00 | 0.00 | 44 | 1011.9 |
| 20260830131956 | 26 | 183 | 12.9 | 17.7 | 0.00 | 0.00 | 0.00 | 42 | 1013.7 |
| 20260830131502 | 26 | 176 | 12.9 | 17.7 | 0.00 | 0.00 | 0.00 | 44 | 1011.9 |
| 20260830131457 | 26 | 192 | 12.9 | 17.7 | 0.00 | 0.00 | 0.00 | 42 | 1013.8 |
| 20260830131002 | 26 | 172 | 11.3 | 17.7 | 0.00 | 0.00 | 0.00 | 44 | 1011.9 |
| 20260830130957 | 26 | 194 | 11.3 | 17.7 | 0.00 | 0.00 | 0.00 | 42 | 1013.8 |
| 20260830130501 | 26 | 172 | 11.3 | 17.7 | 0.00 | 0.00 | 0.00 | 44 | 1011.9 |
| 20260830130003 | 27 | 158 | 11.3 | 17.7 | 0.00 | 0.00 | 0.00 | 41 | 1013.7 |
| 20260830125502 | 26 | 248 | 9.7 | 17.7 | 0.00 | 0.00 | 0.00 | 44 | 1011.9 |
| 20260830125457 | 27 | 203 | 9.7 | 17.7 | 0.00 | 0.00 | 0.00 | 41 | 1014.0 |
| 20260830125001 | 26 | 259 | 9.7 | 17.7 | 0.00 | 0.00 | 0.00 | 44 | 1012.0 |
| 20260830124957 | 27 | 220 | 11.3 | 17.7 | 0.00 | 0.00 | 0.00 | 41 | 1014.0 |
| 20260830124502 | 26 | 228 | 9.7 | 12.9 | 0.00 | 0.00 | 0.00 | 45 | 1012.0 |
| 20260830124457 | 26 | 211 | 11.3 | 16.1 | 0.00 | 0.00 | 0.00 | 43 | 1013.8 |
| 20260830124002 | 26 | 222 | 12.9 | 24.1 | 0.00 | 0.00 | 0.00 | 44 | 1012.0 |
| 20260830123957 | 26 | 190 | 14.5 | 25.7 | 0.00 | 0.00 | 0.00 | 42 | 1014.0 |
| 20260830123502 | 26 | 203 | 17.7 | 27.4 | 0.00 | 0.00 | 0.00 | 44 | 1012.0 |
| 20260830123457 | 26 | 202 | 17.7 | 29.0 | 0.00 | 0.00 | 0.00 | 42 | 1014.1 |
| 20260830123001 | 26 | 195 | 16.1 | 27.4 | 0.00 | 0.00 | 0.00 | 44 | 1012.1 |
| 20260830122958 | 26 | 210 | 16.1 | 29.0 | 0.00 | 0.00 | 0.00 | 42 | 1014.0 |
| 20260830122501 | 26 | 206 | 11.3 | 19.3 | 0.00 | 0.00 | 0.00 | 44 | 1012.0 |
| 20260830122458 | 26 | 218 | 11.3 | 19.3 | 0.00 | 0.00 | 0.00 | 42 | 1014.1 |
| 20260830122002 | 26 | 214 | 9.7 | 12.9 | 0.00 | 0.00 | 0.00 | 44 | 1011.9 |
| 20260830121957 | 27 | 218 | 9.7 | 14.5 | 0.00 | 0.00 | 0.00 | 42 | 1014.1 |
| 20260830121458 | 26 | 217 | 9.7 | 17.7 | 0.00 | 0.00 | 0.00 | 43 | 1014.2 |
| 20260830121001 | 26 | 195 | 12.9 | 19.3 | 0.00 | 0.00 | 0.00 | 44 | 1012.1 |
| 20260830120957 | 26 | 197 | 12.9 | 19.3 | 0.00 | 0.00 | 0.00 | 43 | 1014.2 |
| 20260830120501 | 26 | 174 | 14.5 | 19.3 | 0.00 | 0.00 | 0.00 | 44 | 1012.2 |
| 20260830120457 | 26 | 202 | 14.5 | 19.3 | 0.00 | 0.00 | 0.00 | 42 | 1014.0 |
| 20260830120004 | 26 | 228 | 12.9 | 19.3 | 0.00 | 0.00 | 0.00 | 43 | 1014.2 |
| 20260830120002 | 26 | 184 | 11.3 | 17.7 | 0.00 | 0.00 | 0.00 | 45 | 1012.1 |
| 20260830115501 | 26 | 241 | 11.3 | 16.1 | 0.00 | 0.00 | 0.00 | 45 | 1012.2 |
| 20260830115457 | 26 | 193 | 11.3 | 16.1 | 0.00 | 0.00 | 0.00 | 43 | 1014.1 |
| 20260830115002 | 26 | 241 | 11.3 | 17.7 | 0.00 | 0.00 | 0.00 | 46 | 1012.4 |
| 20260830114957 | 26 | 215 | 11.3 | 17.7 | 0.00 | 0.00 | 0.00 | 42 | 1014.1 |
| 20260830114457 | 26 | 200 | 16.1 | 27.4 | 0.00 | 0.00 | 0.00 | 43 | 1014.4 |
| 20260830113958 | 26 | 175 | 16.1 | 27.4 | 0.00 | 0.00 | 0.00 | 44 | 1014.3 |
| 20260830113502 | 25 | 200 | 12.9 | 19.3 | 0.00 | 0.00 | 0.00 | 48 | 1012.5 |
| 20260830113457 | 25 | 181 | 14.5 | 19.3 | 0.00 | 0.00 | 0.00 | 47 | 1014.3 |
| 20260830113001 | 25 | 219 | 16.1 | 19.3 | 0.00 | 0.00 | 0.00 | 47 | 1012.7 |
| 20260830112958 | 25 | 212 | 16.1 | 19.3 | 0.00 | 0.00 | 0.00 | 45 | 1014.4 |
| 20260830112502 | 25 | 245 | 12.9 | 19.3 | 0.00 | 0.00 | 0.00 | 48 | 1012.7 |
| 20260830112002 | 25 | 202 | 9.7 | 16.1 | 0.00 | 0.00 | 0.00 | 47 | 1012.6 |
| 20260830111957 | 26 | 232 | 9.7 | 16.1 | 0.00 | 0.00 | 0.00 | 43 | 1014.6 |
| 20260830111458 | 26 | 182 | 12.9 | 19.3 | 0.00 | 0.00 | 0.00 | 44 | 1014.6 |
| 20260830111001 | 25 | 210 | 16.1 | 24.1 | 0.00 | 0.00 | 0.00 | 47 | 1012.6 |
| 20260830110958 | 26 | 184 | 17.7 | 24.1 | 0.00 | 0.00 | 0.00 | 45 | 1014.7 |
| 20260830110502 | 25 | 192 | 16.1 | 24.1 | 0.00 | 0.00 | 0.00 | 47 | 1012.7 |
| 20260830110005 | 26 | 170 | 14.5 | 24.1 | 0.00 | 0.00 | 0.00 | 45 | 1014.5 |
| 20260830110002 | 25 | 187 | 12.9 | 17.7 | 0.00 | 0.00 | 0.00 | 47 | 1012.7 |
| 20260830105501 | 25 | 183 | 16.1 | 22.5 | 0.00 | 0.00 | 0.00 | 49 | 1012.8 |
| 20260830104502 | 25 | 254 | 11.3 | 17.7 | 0.00 | 0.00 | 0.00 | 48 | 1013.1 |
| 20260830104458 | 25 | 216 | 12.9 | 17.7 | 0.00 | 0.00 | 0.00 | 45 | 1014.8 |
| 20260830104002 | 25 | 212 | 12.9 | 20.9 | 0.00 | 0.00 | 0.00 | 49 | 1013.1 |
| 20260830103957 | 25 | 196 | 14.5 | 24.1 | 0.00 | 0.00 | 0.00 | 46 | 1014.8 |
| 20260830103501 | 25 | 184 | 16.1 | 22.5 | 0.00 | 0.00 | 0.00 | 48 | 1013.1 |
| 20260830103002 | 25 | 176 | 17.7 | 24.1 | 0.00 | 0.00 | 0.00 | 48 | 1013.0 |
| 20260830102957 | 25 | 138 | 19.3 | 25.7 | 0.00 | 0.00 | 0.00 | 46 | 1014.8 |
| 20260830102502 | 25 | 169 | 19.3 | 24.1 | 0.00 | 0.00 | 0.00 | 49 | 1013.2 |
| 20260830102457 | 25 | 163 | 20.9 | 25.7 | 0.00 | 0.00 | 0.00 | 46 | 1015.2 |
| 20260830102002 | 24 | 169 | 19.3 | 24.1 | 0.00 | 0.00 | 0.00 | 49 | 1013.2 |
| 20260830101957 | 25 | 176 | 19.3 | 24.1 | 0.00 | 0.00 | 0.00 | 47 | 1015.2 |
| 20260830101502 | 24 | 175 | 17.7 | 22.5 | 0.00 | 0.00 | 0.00 | 49 | 1013.3 |
| 20260830101001 | 24 | 171 | 16.1 | 22.5 | 0.00 | 0.00 | 0.00 | 51 | 1013.3 |
| 20260830100958 | 24 | 178 | 14.5 | 22.5 | 0.00 | 0.00 | 0.00 | 49 | 1015.2 |
| 20260830100501 | 23 | 173 | 16.1 | 22.5 | 0.00 | 0.00 | 0.00 | 51 | 1013.5 |
| 20260830095502 | 23 | 206 | 11.3 | 20.9 | 0.00 | 0.00 | 0.00 | 52 | 1013.5 |
| 20260830095458 | 25 | 184 | 12.9 | 22.5 | 0.00 | 0.00 | 0.00 | 48 | 1015.2 |
| 20260830095001 | 23 | 245 | 9.7 | 17.7 | 0.00 | 0.00 | 0.00 | 55 | 1013.5 |
| 20260830094501 | 23 | 220 | 9.7 | 12.9 | 0.00 | 0.00 | 0.00 | 55 | 1013.5 |
| 20260830094458 | 23 | 194 | 9.7 | 14.5 | 0.00 | 0.00 | 0.00 | 53 | 1015.0 |
| 20260830094002 | 23 | 214 | 11.3 | 17.7 | 0.00 | 0.00 | 0.00 | 55 | 1013.5 |
| 20260830093958 | 23 | 184 | 11.3 | 17.7 | 0.00 | 0.00 | 0.00 | 53 | 1015.2 |
| 20260830093505 | 23 | 200 | 11.3 | 17.7 | 0.00 | 0.00 | 0.00 | 50 | 1015.2 |
| 20260830093502 | 23 | 209 | 11.3 | 17.7 | 0.00 | 0.00 | 0.00 | 55 | 1013.6 |
| 20260830093001 | 23 | 200 | 11.3 | 17.7 | 0.00 | 0.00 | 0.00 | 55 | 1013.6 |
| 20260830092958 | 24 | 203 | 12.9 | 17.7 | 0.00 | 0.00 | 0.00 | 50 | 1015.2 |
| 20260830092501 | 23 | 192 | 11.3 | 17.7 | 0.00 | 0.00 | 0.00 | 56 | 1013.7 |
| 20260830092457 | 24 | 197 | 11.3 | 17.7 | 0.00 | 0.00 | 0.00 | 52 | 1015.1 |
| 20260830092002 | 23 | 199 | 9.7 | 14.5 | 0.00 | 0.00 | 0.00 | 56 | 1013.6 |
| 20260830091502 | 23 | 215 | 8.0 | 11.3 | 0.00 | 0.00 | 0.00 | 56 | 1013.8 |
| 20260830091458 | 24 | 234 | 8.0 | 12.9 | 0.00 | 0.00 | 0.00 | 52 | 1015.4 |
| 20260830090958 | 23 | 208 | 9.7 | 17.7 | 0.00 | 0.00 | 0.00 | 54 | 1015.4 |
| 20260830090457 | 23 | 196 | 16.1 | 22.5 | 0.00 | 0.00 | 0.00 | 53 | 1015.2 |
| 20260830090004 | 23 | 199 | 17.7 | 24.1 | 0.00 | 0.00 | 0.00 | 51 | 1015.5 |
| 20260830090002 | 23 | 193 | 17.7 | 20.9 | 0.00 | 0.00 | 0.00 | 55 | 1013.7 |
| 20260830085501 | 23 | 200 | 14.5 | 20.9 | 0.00 | 0.00 | 0.00 | 55 | 1013.8 |
| 20260830085457 | 23 | 198 | 16.1 | 24.1 | 0.00 | 0.00 | 0.00 | 51 | 1015.3 |